Location: Rounton
(54.4000°N, 1.3500°W)
Time: 21:54:39
(UTC+00:00)

Vanguard 1 - Pass Details

Date: 06 December 2021
Orbit: 652 x 3830 km, 34.2° (Epoch: 16 January)

Event Time Altitude Azimuth Distance (km) Brightness Sun altitude
Rises 05:58:32 0° 276° (W) 7,892 - -17.8°
Reaches altitude 10° 06:07:03 10° 261° (W) 6,539 - -16.6°
Exits shadow 06:08:02 11° 259° (WSW) 6,392 13.7 -16.5°
Maximum altitude 06:17:34 17° 229° (SW) 5,241 13.4 -15.2°
Drops below altitude 10° 06:25:59 10° 196° (SSW) 5,040 13.7 -14.0°
Sets 06:31:10 0° 177° (S) 5,466 14.2 -13.3°
